Flight Information

DEPARTURE
TORRANCE, CA
Elevation:
103
Runways:
H1 - 110x110 - ASPH-G
11L/29R - 5001x150 - ASPH-CONC-F
11R/29L - 3000x75 - ASPH-CONC-F
Active PE Departure:
29L - 29R
Current PE ATIS:
Y
Altimeter:
30.12
Remarks:
ATIS:
125.6 310-534-2847
Ground:
120.9
Tower:
124.0 (South) 133.075 (North)
DESTINATION
,
Elevation:
TPA:
1000 (est.)


6793.6 NM73° True-14° Var59° HDG

Flight Plan:
(click to file on line)

1. Type
2. Aircraft Identification
3. Aircraft Type / Special Equipment
4. True Airspeed
kts
5. Departure Airport
(ICAO code)
6. Arriving Airport
(ICAO code)
7. Cruising Altitude
ft
8. Alternate Airport
(ICAO code)
9. Route of Flight
10. Remarks


00:00:00 Departure ATIS: Destination ATIS:

Clearance Limit:
Route:
Altitude: Expect in minutes
Frequency:
Transponder: (7500 Hijack / 7600 Lost Comms / 7700 Emergency)


KTOA 040347Z 25006KT 10SM FEW015 14/14 A3009
Time: 2022-12-04T03:47:00Z
1670651857
Winds: 250 @ 6 kts
Visibility: 10.0 sm
Clouds (AGL): FEW 1500
Temperature: 14.0 C
Dew Point: 14.0 C
Pressure: 30.088583 in Hgbr


Notes:

Data extracted from FAA Digital Chart Supplement. Effective: 0901Z Thursday, 27 JAN 2022 to 0900z Thursday, 24 MAR 2022
Current ATIS data is provided courtisy of PilotEdge.